Location: Allaines
(49.9632°N, 2.9458°E)
Time: 22:59:25
(UTC+00:00)

ATLAS 2AS CENTAUR R/B - Pass Details

Date: 09 April 2020
Orbit: 933 x 1279 km, 63.7° (Epoch: 25 May)

Event Time Altitude Azimuth Distance (km) Brightness Sun altitude
Rises 19:55:29 0° 316° (NW) 4,173 7.4 -13.1°
Reaches altitude 10° 19:58:31 10° 310° (NW) 3,163 6.6 -13.5°
Maximum altitude 20:05:26 41° 244° (WSW) 1,618 3.9 -14.4°
Drops below altitude 10° 20:11:51 10° 177° (S) 2,918 4.6 -15.3°
Enters shadow 20:13:02 - 173° (S) 3,309 4.9 -15.5°
